EW9975 Weather Reports


Display with metric or nautical units.
time (UTC)temp
F
wind
direction
speed
MPH
gust
MPH
rain 1hr
in
rain 24hr
in
rain mn
in
humidity
%
barometer
mb
20260509150012 0 0.0 0.0 0.00 0.00 0.00 1014.4
20260509144501 0 0.0 0.0 0.00 0.00 0.00 1014.4
20260509143058 61 153 2.0 6.0 0.00 0.00 0.00 96 1014.4
20260509141607 60 257 2.0 5.0 0.00 0.00 0.00 96 1014.3
20260509140104 60 216 3.0 5.0 0.00 0.00 0.00 96 1014.2
20260509134558 60 215 4.0 6.0 0.00 0.00 0.00 96 1014.1
20260509133051 60 183 4.0 8.0 0.00 0.00 0.00 96 1014.1
20260509131549 60 205 6.0 8.0 0.00 0.00 0.00 96 1013.9
20260509130051 60 168 0.0 7.0 0.00 0.00 0.00 95 1013.8
20260509124549 61 211 4.0 9.0 0.00 0.00 0.00 96 1013.6
20260509123047 60 195 7.0 10.0 0.00 0.00 0.00 95 1013.6
20260509121545 61 232 6.0 9.0 0.00 0.00 0.00 96 1013.6
20260509120051 61 206 8.0 10.0 0.00 0.00 0.00 95 1013.5
20260509114542 61 212 6.0 10.0 0.00 0.00 0.00 95 1013.7
20260509113040 61 202 7.0 9.0 0.00 0.00 0.00 95 1013.7
20260509111538 61 150 3.0 6.0 0.00 0.00 0.00 95 1013.7
20260509110037 61 190 5.0 8.0 0.00 0.00 0.00 95 1013.7
20260509104541 61 193 4.0 8.0 0.00 0.00 0.00 95 1013.7
20260509103034 61 195 2.0 6.0 0.00 0.00 0.00 95 1013.8
20260509101545 61 200 4.0 7.0 0.00 0.00 0.00 95 1013.9
20260509100033 61 157 0.0 5.0 0.00 0.00 0.00 95 1013.8
20260509094532 61 155 0.0 8.0 0.00 0.00 0.00 95 1014.0
20260509093042 61 169 4.0 9.0 0.00 0.00 0.00 95 1014.1
20260509091528 61 160 7.0 9.0 0.00 0.00 0.00 95 1014.2
20260509090026 61 192 4.0 6.0 0.00 0.00 0.00 95 1014.2
20260509084533 61 209 5.0 7.0 0.00 0.00 0.00 95 1014.5
20260509083024 61 207 3.0 6.0 0.00 0.00 0.00 95 1014.4
20260509081534 61 206 4.0 6.0 0.00 0.00 0.00 95 1014.6
20260509080030 61 162 4.0 6.0 0.00 0.00 0.00 94 1014.6
20260509074519 61 214 4.0 5.0 0.00 0.00 0.00 95 1014.7
20260509073019 61 205 4.0 6.0 0.00 0.00 0.00 94 1014.8
20260509071516 62 200 3.0 6.0 0.00 0.00 0.00 94 1014.9
20260509070017 62 182 2.0 6.0 0.00 0.00 0.00 94 1015.0
20260509064513 62 194 2.0 5.0 0.00 0.00 0.00 94 1015.1
20260509063013 62 233 3.0 6.0 0.00 0.00 0.00 94 1015.1
20260509061516 62 217 4.0 6.0 0.00 0.00 0.00 94 1015.2
20260509060011 62 85 0.0 2.0 0.00 0.00 0.00 94 1015.1
20260509054510 62 84 1.0 4.0 0.00 0.00 0.00 94 1015.3
20260509053019 61 205 3.0 5.0 0.00 0.00 0.00 94 1015.3
20260509051509 62 221 3.0 5.0 0.00 0.00 0.00 94 1015.3
20260509050008 61 239 5.0 8.0 0.00 0.00 0.00 94 1015.3
20260509044508 62 253 4.0 10.0 0.00 0.00 0.00 94 1015.2
20260509043010 62 235 7.0 10.0 0.00 0.00 0.00 94 1015.2
20260509041510 62 231 6.0 10.0 0.00 0.00 0.00 94 1015.1
20260509040009 62 266 5.0 9.0 0.00 0.00 0.00 94 1015.0
20260509034505 62 246 3.0 7.0 0.00 0.00 0.00 94 1014.9
20260509033004 62 251 3.0 4.0 0.00 0.00 0.00 93 1014.8
20260509031504 62 277 7.0 9.0 0.00 0.00 0.00 93 1014.7
20260509030003 62 265 7.0 10.0 0.00 0.00 0.00 93 1014.5
20260509024502 62 229 5.0 11.0 0.00 0.00 0.00 93 1014.6
20260509023107 62 254 6.0 11.0 0.00 0.00 0.00 93 1014.3
20260509021500 63 218 5.0 9.0 0.00 0.00 0.00 92 1014.3
20260509020100 63 199 1.0 5.0 0.00 0.00 0.00 92 1014.4
20260509014700 63 259 2.0 9.0 0.00 0.00 0.00 92 1014.1
20260509013107 63 261 6.0 10.0 0.00 0.00 0.00 92 1014.3
20260509011558 63 265 4.0 9.0 0.00 0.00 0.00 92 1014.2
20260509010057 63 225 6.0 10.0 0.00 0.00 0.00 92 1014.3
20260509004611 63 225 5.0 8.0 0.00 0.00 0.00 92 1014.4
20260509003056 63 201 6.0 9.0 0.00 0.00 0.00 93 1014.3
20260509001555 63 248 8.0 10.0 0.00 0.00 0.00 92 1014.2
20260509000052 64 238 8.0 11.0 0.00 0.00 0.00 92 1014.5
20260508234552 64 245 7.0 11.0 0.00 0.00 0.00 92 1014.7
20260508233101 64 249 9.0 11.0 0.00 0.00 0.00 91 1014.6
20260508231551 64 257 9.0 12.0 0.00 0.00 0.00 91 1014.8
20260508230054 64 251 10.0 12.0 0.00 0.00 0.00 91 1014.8
20260508224542 64 246 9.0 11.0 0.00 0.00 0.00 91 1014.9
20260508223040 64 233 8.0 12.0 0.00 0.00 0.00 92 1014.9
20260508221538 63 246 11.0 15.0 0.00 0.00 0.00 91 1015.2
20260508220037 63 237 10.0 13.0 0.00 0.00 0.00 91 1015.3
20260508214537 63 238 11.0 14.0 0.00 0.00 0.00 91 1015.4
20260508213035 63 234 10.0 13.0 0.00 0.00 0.00 92 1015.6
20260508211535 63 232 10.0 12.0 0.00 0.00 0.00 91 1015.5
20260508210027 62 240 9.0 12.0 0.00 0.00 0.00 91 1015.5
20260508204525 63 225 10.0 12.0 0.00 0.00 0.00 92 1015.5
20260508203023 62 238 10.0 12.0 0.00 0.00 0.00 92 1015.5
20260508201522 63 238 9.0 12.0 0.00 0.00 0.00 92 1015.5
20260508200026 62 228 9.0 12.0 0.00 0.00 0.00 92 1015.6
20260508194518 62 234 9.0 11.0 0.00 0.00 0.00 92 1015.7
20260508193016 62 247 11.0 13.0 0.00 0.00 0.00 92 1015.9
20260508191519 63 246 10.0 13.0 0.00 0.00 0.00 93 1016.1
20260508190012 62 233 10.0 12.0 0.00 0.00 0.00 92 1016.1
20260508184509 62 234 8.0 9.0 0.00 0.00 0.00 93 1016.3
20260508183008 63 221 7.0 8.0 0.00 0.00 0.00 93 1016.5
20260508181506 62 243 6.0 8.0 0.00 0.00 0.00 93 1016.6
20260508180006 62 243 5.0 8.0 0.00 0.00 0.00 94 1016.7
20260508174614 62 236 5.0 6.0 0.00 0.00 0.00 94 1016.8
20260508173103 62 224 5.0 6.0 0.00 0.00 0.00 94 1016.8
20260508171508 62 225 5.0 7.0 0.00 0.00 0.00 95 1016.9
20260508170003 61 229 4.0 7.0 0.00 0.00 0.00 94 1016.9
20260508164604 61 245 4.0 7.0 0.00 0.00 0.00 95 1017.0
20260508163001 61 245 3.0 5.0 0.00 0.00 0.00 95 1017.0
20260508161600 61 242 3.0 5.0 0.00 0.00 0.00 95 1016.9
20260508160107 61 194 2.0 3.0 0.00 0.00 0.00 95 1016.9
20260508154600 61 196 3.0 4.0 0.00 0.00 0.00 95 1016.9
20260508153058 61 196 2.0 4.0 0.00 0.00 0.00 95 1016.9
20260508151602 61 196 2.0 5.0 0.00 0.00 0.00 95 1016.9